ONEWEB-0292 (49186 NORAD) Tracking and Keplerian Element Data

This shows tracking and keplerian element data for the satellite.

Feedback or suggestion? Click here.




ElementValue
Catalog49186
NameONEWEB-0292
Epoch Orbit591
Epoch Day288.16667824
Epoch Year2021
RAAN317.4675
Inclination87.2166
Eccentricity0.001971
Argument of Perigee190.5557
Mean Anonmoly138.6377
Mean Motion14.93075281
Decay Rate-0.01386122
L11 49186U 21083A 21288.16667824 -.01386122 00000-0 -14472+0 0 9995
L22 49186 87.2166 317.4675 0019710 190.5557 138.6377 14.93075281 5913

Live tracking and technical data element details for ONEWEB-0292 (NORAD 49186). ONEWEB-0292 can be tracked NOW for your location showing map with azimuth and elevation plus other details from your city location.

Track the satellite on the map from your city or location and see movement details for azimuth, elevation, latitude, longitude, range, height, and movement on the map or in text.







IsCatalogInMostPopularTable: catalog: 49186, numindb: 7
Update: records affected: 1



GetName: 49186 ONEWEB-0292

Hit Count: updated at: Sun, 17 Oct 2021 09:36:10 GMT